Regional Weather Roundup
Issued by NWS

Home | Current Version | Previous Version | Text Only | Print | Product List | Glossary Off
Versions: 1 2 3 4 5 6 7 8 9 10 11 12 13 14 15 16 17 18 19 20 21 22 23 24 25 26 27 28 29 30 31 32 33 34 35 36 37 38 39 40 41 42 43 44 45 46 47 48 49 50

000
ASUS43 KFSD 140410
RWRSD

WEATHER ROUNDUP FOR SOUTH DAKOTA
NATIONAL WEATHER SERVICE SIOUX FALLS SD
1000 PM CST WED DEC 13 2017

NOTE: "FAIR" INDICATES FEW OR NO CLOUDS BELOW 12,000 FEET WITH NO
SIGNIFICANT WEATHER AND/OR OBSTRUCTIONS TO VISIBILITY.


SDZ001>005-009-010-012>017-140500-
NORTHWEST AND NORTH CENTRAL SOUTH DAKOTA

CITY           SKY/WX    TMP DP  RH WIND       PRES   REMARKS
BUFFALO          N/A     36  29  75 NW24G33   29.99F
FAITH            N/A     35  25  66 NW16      30.03R WCI  25
MOBRIDGE       CLEAR     30  25  81 NW8       29.99R WCI  22
$$

SDZ012>016-024>037-041>051-057-063-072>074-140500-
SOUTHWEST AND SOUTH CENTRAL SOUTH DAKOTA

CITY           SKY/WX    TMP DP  RH WIND       PRES   REMARKS
RAPID CTY ARPT CLOUDY    39  23  52 NW26G32   30.07R
PIERRE         MOCLDY    29  25  85 NW8       30.03R WCI  21
CUSTER         CLOUDY    31  19  61 NW5       30.04R WCI  26
ELLSWORTH AFB  CLOUDY    39  23  53 NW23      30.06S
PHILIP         CLOUDY    39  25  57 NW12      30.06R
PINE RIDGE     CLOUDY    36  24  62 N6        30.08R
SPEARFISH      MOCLDY    36  23  60 W17G25    30.11R
WINNER         FAIR      30  24  78 NW6       30.04R WCI  24
$$

SDZ004>011-016>023-039-040-140500-
NORTHEAST SOUTH DAKOTA

CITY           SKY/WX    TMP DP  RH WIND       PRES   REMARKS
ABERDEEN       CLOUDY    31  28  89 N6        29.98R WCI  25
WATERTOWN      CLOUDY    26  24  92 N12       29.93R WCI  16
BROOKINGS      CLOUDY    27  25  93 N8        29.94R WCI  18
SISSETON         N/A     23  20  88 N10       29.97R WCI  12
$$

SDZ017-020-022-023-036>040-048>070-140500-
SOUTHEAST SOUTH DAKOTA

CITY           SKY/WX    TMP DP  RH WIND       PRES   REMARKS
SIOUX FALLS    CLOUDY    31  27  85 N9        29.96R WCI  23
HURON          CLOUDY    34  24  67 N9        29.98S WCI  27
CHAMBERLAIN    CLOUDY    37  28  72 NW10      30.02S
MITCHELL       CLOUDY    36  24  62 NW12      30.00R
YANKTON        CLOUDY    36  26  67 NW13      29.98R
$$

ABBREVIATIONS USED IN REMARKS
   TC - TEMPERATURE IN CELSIUS
  WCI - WIND CHILL INDEX
   HX - HEAT INDEX
  VSB - VISIBILITY





USA.gov is the U.S. government's official web portal to all federal, state and local government web resources and services.